| time (UTC) | temp C | wind direction | speed KPH | gust KPH | rain 1hr cm | rain 24hr cm | rain mn cm | humidity % | barometer mb |
| 20260506113306 | 14 | 176 | 0.0 | 3.2 | 0.03 | 0.69 | 0.05 | 87 | 1005.2 |
| 20260506112306 | 14 | 177 | 0.0 | 0.0 | 0.03 | 0.69 | 0.05 | 86 | 1005.2 |
| 20260506111309 | 14 | 177 | 0.0 | 0.0 | 0.03 | 0.69 | 0.05 | 87 | 1005.1 |
| 20260506104307 | 14 | 207 | 0.0 | 4.8 | 0.00 | 0.66 | 0.05 | 86 | 1005.2 |
| 20260506103304 | 14 | 238 | 0.0 | 6.4 | 0.00 | 0.66 | 0.05 | 85 | 1005.1 |
| 20260506102305 | 14 | 217 | 1.6 | 4.8 | 0.00 | 0.66 | 0.05 | 85 | 1005.2 |
| 20260506101301 | 14 | 254 | 0.0 | 8.0 | 0.00 | 0.66 | 0.05 | 86 | 1005.3 |
| 20260506100302 | 14 | 240 | 0.0 | 6.4 | 0.00 | 0.66 | 0.05 | 87 | 1005.2 |
| 20260506095305 | 14 | 186 | 0.0 | 0.0 | 0.00 | 0.66 | 0.05 | 90 | 1005.1 |
| 20260506094303 | 13 | 186 | 1.6 | 4.8 | 0.00 | 0.66 | 0.05 | 89 | 1005.2 |
| 20260506093303 | 13 | 199 | 0.0 | 4.8 | 0.00 | 0.66 | 0.05 | 89 | 1005.1 |
| 20260506090302 | 14 | 165 | 0.0 | 6.4 | 0.00 | 0.66 | 0.05 | 90 | 1004.9 |
| 20260506085301 | 14 | 163 | 0.0 | 3.2 | 0.00 | 0.69 | 0.05 | 91 | 1004.9 |
| 20260506084301 | 13 | 162 | 0.0 | 3.2 | 0.00 | 0.69 | 0.05 | 92 | 1004.9 |
| 20260506082306 | 13 | 241 | 1.6 | 8.0 | 0.00 | 0.69 | 0.05 | 93 | 1004.8 |
| 20260506081301 | 13 | 185 | 0.0 | 4.8 | 0.00 | 0.69 | 0.05 | 94 | 1004.8 |
| 20260506080301 | 13 | 187 | 1.6 | 4.8 | 0.00 | 0.69 | 0.05 | 94 | 1004.8 |
| 20260506073305 | 12 | 248 | 0.0 | 4.8 | 0.00 | 0.69 | 0.05 | 94 | 1004.9 |
| 20260506072305 | 12 | 252 | 1.6 | 6.4 | 0.00 | 0.69 | 0.05 | 93 | 1004.7 |
| 20260506071302 | 12 | 161 | 0.0 | 6.4 | 0.00 | 0.69 | 0.05 | 93 | 1004.8 |
| 20260506070301 | 12 | 149 | 1.6 | 6.4 | 0.00 | 0.69 | 0.05 | 93 | 1004.6 |
| 20260506062305 | 12 | 225 | 0.0 | 3.2 | 0.00 | 0.69 | 0.05 | 92 | 1004.6 |
| 20260506061300 | 12 | 231 | 0.0 | 3.2 | 0.00 | 0.69 | 0.05 | 92 | 1004.5 |
| 20260506060301 | 12 | 237 | 0.0 | 1.6 | 0.00 | 0.69 | 0.05 | 92 | 1004.5 |
| 20260506050314 | 11 | 247 | 1.6 | 4.8 | 0.00 | 0.69 | 0.05 | 92 | 1004.7 |
| 20260506043302 | 11 | 250 | 0.0 | 0.0 | 0.05 | 0.66 | 0.05 | 92 | 1004.7 |
| 20260506042301 | 11 | 250 | 0.0 | 0.0 | 0.05 | 0.66 | 0.05 | 92 | 1004.7 |
| 20260506041301 | 11 | 250 | 0.0 | 0.0 | 0.05 | 0.66 | 0.05 | 92 | 1004.7 |
| 20260506040303 | 11 | 250 | 0.0 | 0.0 | 0.05 | 0.66 | 0.05 | 93 | 1004.7 |
| 20260506035306 | 11 | 250 | 0.0 | 0.0 | 0.00 | 0.64 | 0.00 | 93 | 1004.7 |
| 20260506034301 | 11 | 250 | 0.0 | 0.0 | 0.00 | 0.64 | 0.00 | 92 | 1004.7 |
| 20260506033303 | 11 | 250 | 0.0 | 0.0 | 0.00 | 0.64 | 0.00 | 93 | 1004.7 |
| 20260506030304 | 11 | 252 | 1.6 | 6.4 | 0.00 | 0.64 | 0.00 | 92 | 1004.8 |
| 20260506025305 | 11 | 248 | 0.0 | 3.2 | 0.00 | 0.64 | 0.00 | 92 | 1004.8 |
| 20260506023301 | 11 | 250 | 0.0 | 0.0 | 0.00 | 0.64 | 0.00 | 92 | 1004.9 |
| 20260506021301 | 11 | 250 | 0.0 | 4.8 | 0.00 | 0.64 | 0.00 | 91 | 1004.8 |
| 20260506020303 | 12 | 146 | 0.0 | 0.0 | 0.00 | 0.64 | 0.00 | 91 | 1005.0 |
| 20260506015306 | 12 | 146 | 0.0 | 0.0 | 0.00 | 0.64 | 0.00 | 91 | 1005.2 |
| 20260506014303 | 12 | 146 | 0.0 | 0.0 | 0.00 | 0.64 | 0.00 | 91 | 1005.2 |
| 20260506013303 | 12 | 146 | 0.0 | 0.0 | 0.00 | 0.64 | 0.00 | 91 | 1005.2 |
| 20260506012308 | 12 | 146 | 0.0 | 0.0 | 0.00 | 0.64 | 0.00 | 91 | 1005.2 |
| 20260506011301 | 12 | 146 | 0.0 | 0.0 | 0.00 | 0.64 | 0.00 | 91 | 1005.2 |
| 20260506010304 | 12 | 146 | 0.0 | 0.0 | 0.00 | 0.64 | 0.00 | 91 | 1005.2 |
| 20260506005305 | 12 | 146 | 0.0 | 0.0 | 0.00 | 0.64 | 0.00 | 91 | 1005.2 |
| 20260506004300 | 11 | 146 | 0.0 | 0.0 | 0.00 | 0.64 | 0.00 | 91 | 1005.3 |
| 20260506003303 | 11 | 146 | 0.0 | 0.0 | 0.00 | 0.64 | 0.00 | 91 | 1005.3 |
| 20260506002301 | 11 | 146 | 0.0 | 0.0 | 0.00 | 0.64 | 0.00 | 91 | 1005.3 |
| 20260506001301 | 12 | 146 | 0.0 | 0.0 | 0.00 | 0.64 | 0.00 | 91 | 1005.3 |
| 20260506000302 | 12 | 146 | 0.0 | 0.0 | 0.00 | 0.64 | 0.00 | 91 | 1005.4 |
| 20260505235313 | 12 | 146 | 0.0 | 0.0 | 0.00 | 0.64 | 0.00 | 91 | 1005.6 |
| 20260505234301 | 12 | 146 | 0.0 | 0.0 | 0.00 | 0.64 | 0.00 | 91 | 1005.6 |
| 20260505233304 | 12 | 146 | 0.0 | 0.0 | 0.00 | 0.64 | 0.00 | 91 | 1005.7 |
| 20260505232306 | 12 | 146 | 0.0 | 0.0 | 0.00 | 0.64 | 0.00 | 91 | 1005.8 |
| 20260505231302 | 12 | 146 | 0.0 | 0.0 | 0.00 | 0.64 | 0.00 | 91 | 1005.9 |
| 20260505230302 | 12 | 146 | 0.0 | 0.0 | 0.00 | 0.64 | 0.00 | 91 | 1006.0 |
| 20260505225305 | 12 | 146 | 0.0 | 0.0 | 0.00 | 0.66 | 0.00 | 91 | 1006.0 |
| 20260505224301 | 12 | 146 | 0.0 | 0.0 | 0.00 | 0.69 | 0.00 | 91 | 1006.0 |
| 20260505222306 | 12 | 146 | 0.0 | 0.0 | 0.00 | 0.71 | 0.00 | 91 | 1006.2 |
| 20260505221305 | 12 | 146 | 0.0 | 0.0 | 0.00 | 0.71 | 0.00 | 91 | 1006.2 |
| 20260505220304 | 12 | 146 | 0.0 | 0.0 | 0.03 | 0.79 | 0.00 | 91 | 1006.2 |
| 20260505215308 | 12 | 146 | 0.0 | 0.0 | 0.03 | 0.84 | 0.79 | 91 | 1006.3 |
| 20260505214305 | 12 | 146 | 0.0 | 0.0 | 0.03 | 0.84 | 0.79 | 91 | 1006.4 |
| 20260505211304 | 13 | 146 | 0.0 | 0.0 | 0.05 | 0.84 | 0.79 | 92 | 1006.5 |
| 20260505204305 | 13 | 146 | 0.0 | 0.0 | 0.10 | 0.79 | 0.79 | 92 | 1006.7 |
| 20260505203301 | 13 | 146 | 0.0 | 0.0 | 0.08 | 0.79 | 0.76 | 92 | 1006.8 |
| 20260505201306 | 13 | 146 | 0.0 | 0.0 | 0.10 | 0.81 | 0.76 | 92 | 1006.8 |
| 20260505195301 | 13 | 146 | 0.0 | 0.0 | 0.05 | 0.74 | 0.71 | 92 | 1006.6 |
| 20260505194306 | 13 | 146 | 0.0 | 0.0 | 0.05 | 0.74 | 0.69 | 92 | 1006.7 |
| 20260505193305 | 13 | 146 | 0.0 | 0.0 | 0.05 | 0.74 | 0.69 | 92 | 1006.5 |
| 20260505191301 | 13 | 146 | 0.0 | 0.0 | 0.05 | 0.74 | 0.66 | 92 | 1006.6 |
| 20260505190302 | 13 | 146 | 0.0 | 0.0 | 0.08 | 0.74 | 0.66 | 93 | 1006.5 |
| 20260505185304 | 14 | 146 | 0.0 | 0.0 | 0.05 | 0.66 | 0.64 | 92 | 1006.6 |
| 20260505184303 | 14 | 146 | 0.0 | 0.0 | 0.08 | 0.66 | 0.64 | 92 | 1006.6 |
| 20260505183302 | 14 | 146 | 0.0 | 0.0 | 0.05 | 0.66 | 0.61 | 93 | 1006.6 |
| 20260505182321 | 14 | 146 | 0.0 | 0.0 | 0.05 | 0.66 | 0.61 | 93 | 1006.6 |
| 20260505181301 | 14 | 146 | 0.0 | 0.0 | 0.05 | 0.66 | 0.61 | 93 | 1006.6 |
| 20260505180303 | 14 | 146 | 0.0 | 0.0 | 0.05 | 0.66 | 0.58 | 93 | 1006.6 |
| 20260505175305 | 14 | 146 | 0.0 | 0.0 | 0.05 | 0.61 | 0.58 | 93 | 1006.6 |
| 20260505174301 | 14 | 146 | 0.0 | 0.0 | 0.05 | 0.61 | 0.56 | 93 | 1006.6 |
| 20260505173300 | 14 | 146 | 0.0 | 0.0 | 0.05 | 0.61 | 0.56 | 93 | 1006.6 |
| 20260505172305 | 14 | 146 | 0.0 | 0.0 | 0.08 | 0.61 | 0.53 | 93 | 1006.6 |
| 20260505171301 | 14 | 146 | 0.0 | 0.0 | 0.10 | 0.61 | 0.53 | 93 | 1006.7 |
| 20260505170305 | 14 | 146 | 0.0 | 0.0 | 0.15 | 0.61 | 0.51 | 93 | 1006.8 |
| 20260505165306 | 14 | 146 | 0.0 | 0.0 | 0.15 | 0.46 | 0.51 | 93 | 1006.8 |
| 20260505164301 | 14 | 146 | 0.0 | 0.0 | 0.18 | 0.46 | 0.51 | 93 | 1006.9 |
| 20260505163302 | 14 | 146 | 0.0 | 0.0 | 0.20 | 0.46 | 0.51 | 93 | 1006.9 |
| 20260505162301 | 14 | 146 | 1.6 | 3.2 | 0.20 | 0.46 | 0.48 | 93 | 1007.0 |
| 20260505161302 | 15 | 146 | 0.0 | 1.6 | 0.18 | 0.46 | 0.43 | 93 | 1007.0 |
| 20260505160303 | 15 | 146 | 0.0 | 4.8 | 0.15 | 0.46 | 0.38 | 92 | 1007.0 |
| 20260505153304 | 15 | 229 | 1.6 | 3.2 | 0.13 | 0.33 | 0.30 | 91 | 1007.0 |
| 20260505150305 | 16 | 264 | 0.0 | 3.2 | 0.05 | 0.36 | 0.23 | 90 | 1006.9 |
| 20260505130304 | 18 | 86 | 0.0 | 4.8 | 0.00 | 0.89 | 0.18 | 70 | 1007.2 |
| 20260505124301 | 19 | 86 | 1.6 | 20.9 | 0.00 | 0.89 | 0.18 | 71 | 1007.4 |
| 20260505123307 | 19 | 30 | 4.8 | 9.7 | 0.00 | 0.89 | 0.18 | 64 | 1007.4 |
| 20260505122301 | 20 | 148 | 3.2 | 6.4 | 0.00 | 0.89 | 0.18 | 70 | 1007.5 |
| 20260505121304 | 19 | 152 | 1.6 | 4.8 | 0.00 | 0.89 | 0.18 | 71 | 1007.6 |
| 20260505120304 | 19 | 146 | 0.0 | 3.2 | 0.00 | 0.89 | 0.18 | 72 | 1007.8 |
| 20260505115305 | 18 | 142 | 0.0 | 4.8 | 0.00 | 0.89 | 0.18 | 66 | 1007.8 |